This is the latest recevied weather packets stored in our database for station/object N3AVN. If no packets are shown the sender has not sent any weather packets the latest 10 day(s).
| Time | Temp. | Humidity | Pressure | Rain* | Wind** | Luminosity | Snow |
|---|---|---|---|---|---|---|---|
| 1777885880 | 5.56° C | 73% | 1010.3 hPa | 0 mm | - | 0 W/m² | - |
| 1777885579 | 5° C | 74% | 1010.1 hPa | 0 mm | - | 0 W/m² | - |
| 1777885277 | 5° C | 75% | 1010.3 hPa | 0 mm | - | 0 W/m² | - |
| 1777884974 | 4.44° C | 77% | 1010.3 hPa | 0 mm | - | 0 W/m² | - |
| 1777884670 | 4.44° C | 77% | 1010.3 hPa | 0 mm | - | 0 W/m² | - |
| 1777884367 | 4.44° C | 77% | 1010 hPa | 0 mm | - | 0 W/m² | - |
| 1777884063 | 5° C | 76% | 1010.1 hPa | 0 mm | - | 0 W/m² | - |
| 1777883761 | 5.56° C | 73% | 1010.3 hPa | 0 mm | - | 0 W/m² | - |
| 1777883457 | 5.56° C | 73% | 1010.2 hPa | 0 mm | - | 0 W/m² | - |
| 1777883153 | 5° C | 75% | 1010.2 hPa | 0 mm | - | 0 W/m² | - |
| 1777882850 | 5° C | 74% | 1010.3 hPa | 0 mm | - | 0 W/m² | - |
| 1777882547 | 5° C | 75% | 1010.2 hPa | 0 mm | - | 0 W/m² | - |
| 1777882243 | 5° C | 74% | 1010.2 hPa | 0 mm | - | 0 W/m² | - |
| 1777881940 | 5° C | 75% | 1010.3 hPa | 0 mm | - | 0 W/m² | - |
| 1777881636 | 5° C | 76% | 1010.2 hPa | 0 mm | - | 0 W/m² | - |
| 1777881333 | 5° C | 77% | 1010 hPa | 0 mm | - | 0 W/m² | - |
| 1777881030 | 5° C | 76% | 1010.1 hPa | 0 mm | - | 0 W/m² | - |
| 1777880728 | 5.56° C | 75% | 1010.2 hPa | 0 mm | - | 0 W/m² | - |
| 1777880426 | 5.56° C | 74% | 1010.2 hPa | 0 mm | - | 0 W/m² | - |
| 1777880125 | 5.56° C | 76% | 1010.4 hPa | 0 mm | - | 0 W/m² | - |
| 1777879822 | 5.56° C | 77% | 1010.1 hPa | 0 mm | - | 0 W/m² | - |
| 1777879520 | 5.56° C | 75% | 1010.2 hPa | 0 mm | - | 0 W/m² | - |
| 1777879216 | 5.56° C | 76% | 1010.1 hPa | 0 mm | - | 0 W/m² | - |
| 1777878913 | 5.56° C | 76% | 1010.1 hPa | 0 mm | - | 0 W/m² | - |
| 1777878610 | 5.56° C | 76% | 1009.9 hPa | 0 mm | - | 0 W/m² | - |
* Rain latest hour (hover to see other rain measurements)
** Current wind speed in m/s (hover to see current wind gust speed)